This demonstration page uses our WeatherBlox Daily Observations layout. Learn more.

Left ArrowRight Arrow

39.92423, -83.80882

Hourly Observations for September 2, 2015

Temp ( °F °C ) Dew Point ( °F °C ) Humidity (%) Winds ( mph kmh ) Pressure ( in mb ) Visibility ( mi km ) Precip ( " mm )
12:56 am 00:56 Clear 67 19.4 66 18.8 96 96 N N/A 30.12 1020 10 16 N/A
1:56 am 01:56 Clear 65 18.3 65 18.3 100 100 E 3 6 30.11 1020 10 16 N/A
2:56 am 02:56 Clear 65 18.3 65 18.3 100 100 ESE 3 6 30.10 1019 10 16 N/A
3:56 am 03:56 Clear 65 18.3 65 18.3 100 100 N N/A 30.10 1019 10 16 N/A
4:56 am 04:56 Clear 64 17.7 64 17.7 100 100 N N/A 30.11 1020 10 16 N/A
5:56 am 05:56 Clear 65 18.3 65 18.3 100 100 N N/A 30.10 1019 8 13 N/A
6:56 am 06:56 Mostly Clear 65 18.3 65 18.3 100 100 N N/A 30.11 1020 8 13 N/A
7:56 am 07:56 Sunny with Mist and Fog 67 19.4 67 19.4 100 100 SW 5 7 30.14 1021 4 6 N/A
8:56 am 08:56 Partly Cloudy with Mist and Fog 69 20.5 68 20 97 97 N N/A 30.14 1021 3 5 N/A
9:46 am 09:46 Mostly Cloudy with Mist and Fog 72 22 72 22 100 100 WNW 3 6 30.15 1021 3 5 N/A
9:56 am 09:56 Mostly Cloudy with Mist and Fog 72 22.2 71 21.6 96 96 N N/A 30.14 1021 4 6 N/A
10:12 am 10:12 Partly Cloudy with Mist and Fog 72 22 72 22 100 100 SSW 3 6 30.12 1020 5 8 N/A
10:28 am 10:28 Partly Cloudy with Nearby Thunderstorms 73 23 72 22 94 94 N N/A 30.15 1021 7 11 N/A
10:56 am 10:56 Cloudy with Nearby Thunderstorms 73 22.7 71 21.6 94 94 NNE 14 22 30.16 1021 1 2 0.07 1.78
10:59 am 10:59 Cloudy with Nearby Thunderstorms 73 23 72 22 94 94 NNE 9 15 30.15 1021 2 3 N/A
11:06 am 11:06 Mostly Cloudy 72 22 70 21 94 94 N 7 11 30.15 1021 10 16 0.01 0.25
11:15 am 11:15 Cloudy with Thunderstorms 72 22 70 21 94 94 SE 6 9 30.15 1021 2 3 0.08 2.03
11:23 am 11:23 Cloudy with Thunderstorms 72 22 70 21 94 94 ESE 5 7 30.15 1021 3 5 0.09 2.29
11:40 am 11:40 Mostly Cloudy 72 22 72 22 100 100 SE 6 9 30.15 1021 10 16 0.09 2.29
11:48 am 11:48 Partly Cloudy 72 22 72 22 100 100 SSE 5 7 30.12 1020 10 16 0.09 2.29
11:56 am 11:56 Mostly Sunny 72 22.2 71 21.6 96 96 S 6 9 30.14 1021 10 16 0.09 2.29
12:56 pm 12:56 Mostly Sunny 80 26.6 75 23.8 85 85 VRB 5 7 30.12 1020 10 16 0.01 0.25
1:56 pm 13:56 Sunny 84 28.8 75 23.8 74 74 SSW 7 11 30.09 1019 10 16 N/A
2:08 pm 14:08 Sunny with Nearby Thunderstorms 84 29 75 24 74 74 VRB 6 9 30.06 1018 10 16 N/A
2:28 pm 14:28 Sunny 86 30 75 24 70 70 S 6 9 30.03 1017 10 16 N/A
2:56 pm 14:56 Partly Cloudy 84 28.8 74 23.3 72 72 WSW 7 11 30.07 1018 10 16 N/A
3:56 pm 15:56 Mostly Cloudy 78 25.5 71 21.6 79 79 VRB 3 6 30.05 1018 10 16 N/A
4:56 pm 16:56 Partly Cloudy 76 24.4 71 21.6 84 84 SW 8 13 30.05 1018 10 16 N/A
5:56 pm 17:56 Sunny 80 26.6 72 22.2 77 77 SW 6 9 30.02 1017 10 16 N/A
6:56 pm 18:56 Mostly Sunny 79 26.1 73 22.7 82 82 N N/A 30.01 1016 10 16 N/A
7:56 pm 19:56 Mostly Sunny 77 25 74 23.3 90 90 SW 5 7 30.01 1016 10 16 N/A
8:56 pm 20:56 Partly Cloudy 74 23.3 73 22.7 96 96 ESE 7 11 30.03 1017 10 16 N/A
9:56 pm 21:56 Mostly Cloudy 74 23.3 71 21.6 90 90 S 3 6 30.05 1018 10 16 N/A
10:56 pm 22:56 Clear 71 21.6 70 21.1 97 97 N N/A 30.04 1017 10 16 N/A
11:56 pm 23:56 Clear 71 21.6 69 20.5 93 93 E 6 9 30.05 1018 10 16 N/A

Powered by AerisWeather